Location: Shenandoah County Park
(38.9356°N, 78.4524°W)
Time: 23:10:38
(UTC-05:00)

Vanguard 3 - Visible Passes

Search period start: 30 November 2023 00:00
Search period end: 10 December 2023 00:00
Orbit: 507 x 3241 km, 33.3° (Epoch: 30 November)

Date Brightness Start Highest point End Pass type
(mag) Time Alt. Az. Time Alt. Az. Time Alt. Az.
30 Nov 10.7 20:13:08 10° S 20:16:12 13° SSE 20:16:12 13° SSE visible
01 Dec 10.6 21:04:36 10° SSW 21:08:09 17° SSW 21:08:09 17° SSW visible
02 Dec 10.4 19:47:37 10° S 19:55:47 18° SSE 19:55:47 18° SSE visible
02 Dec 10.9 21:58:41 10° SW 22:00:07 13° SW 22:00:07 13° SW visible
03 Dec 10.7 18:33:42 10° SSE 18:38:06 12° SE 18:42:02 10° SE visible
03 Dec 10.3 20:40:08 10° SSW 20:47:44 25° S 20:47:44 25° S visible
04 Dec 10.2 19:22:31 10° SSW 19:33:42 23° SSE 19:35:21 22° SE visible
04 Dec 10.5 21:34:40 10° SW 21:39:41 22° SW 21:39:41 22° SW visible
05 Dec 10.6 18:07:01 10° S 18:15:17 15° SE 18:22:12 10° ESE visible
05 Dec 9.9 20:15:42 10° SW 20:27:17 34° S 20:27:17 34° S visible
05 Dec 10.9 22:30:17 10° WSW 22:31:37 13° WSW 22:31:37 13° WSW visible
06 Dec 10.1 18:57:40 10° SSW 19:10:53 27° SSE 19:14:53 24° SE visible
06 Dec 10.1 21:10:35 10° SW 21:19:13 33° SSW 21:19:13 33° SSW visible
07 Dec 10.6 17:41:25 10° S 17:52:17 19° SE 18:01:11 10° ESE visible
07 Dec 9.7 19:51:18 10° SW 20:06:26 40° SSE 20:06:47 40° SSE visible
07 Dec 10.6 22:06:28 10° WSW 22:11:06 22° WSW 22:11:06 22° WSW visible
08 Dec 10.1 18:32:59 10° SSW 18:47:52 31° SSE 18:54:19 22° ESE visible
08 Dec 9.7 20:46:27 10° SW 20:58:39 46° SSW 20:58:39 46° SSW visible
08 Dec 11.1 23:02:49 10° W 23:02:58 10° W 23:02:58 10° W visible
09 Dec 10.7 17:16:19 10° S 17:29:07 22° SE 17:39:39 10° E visible
09 Dec 9.6 19:26:58 10° SW 19:43:29 45° SSE 19:46:10 41° SE visible
09 Dec 10.2 21:42:33 10° WSW 21:50:30 33° WSW 21:50:30 33° WSW visible
